Weather History for Bishop, CA

Change the Weather History Date:

Monday, August 12, 2013

  Actual Average Record
Temperature  
Mean Temperature 74 °F 76 °F  
Max Temperature 95 °F 97 °F 105 °F (1960)
Min Temperature 53 °F 55 °F 42 °F (1993)
Degree Days  
Heating Degree Days 0 0  
Month to date heating degree days 0 0  
Since 1 June heating degree days 0 20  
Since 1 July heating degree days 0 1  
Cooling Degree Days 9 11  
Month to date cooling degree days 94 139  
Year to date cooling degree days 965 803  
Since 1 June cooling degree days 879 735  
Growing Degree Days 24 (Base 50)    
Moisture  
Dew Point 25 °F    
Average Humidity 22    
Maximum Humidity 38    
Minimum Humidity 6    
Precipitation  
Precipitation 0.00 in 0.00 in 0.14 in (1990)
Month to date precipitation 0.00 0.05  
Year to date precipitation 0.95 3.29  
Snow  
Snow 0.00 in 0.00 in - ()
Month to date snowfall 0.0 0.0  
Since 1 June snowfall 0.0 0.0  
Since 1 July snowfall 0.0 0.0  
Snow Depth 0.00 in    
Sea Level Pressure  
Sea Level Pressure 29.87 in    
Wind  
Wind Speed 8 mph (South)    
Max Wind Speed 23 mph    
Max Gust Speed 30 mph    
Visibility 10 miles    
Events      
T = Trace of Precipitation, MM = Missing Value Source: NWS Daily Summary

Daily Weather History Graph

Daily Weather History Graph

Search for Another Location

Airport:

Trip Planner

Search our weather history database for the weather conditions in past years. The results will help you decide how hot, cold, wet, or windy it might be!

Date:

Astronomy

Aug. 12, 2013 Rise Set
Actual Time 6:07 AM PDT 7:48 PM PDT
Civil Twilight 5:39 AM PDT 8:16 PM PDT
Nautical Twilight 5:05 AM PDT 8:50 PM PDT
Astronomical Twilight 4:29 AM PDT 9:26 PM PDT
Moon 11:54 AM PDT (8/12) 10:54 PM PDT (8/12)
Length of Visible Light 14h 37m
Length of Day
13h 41m
Waxing Crescent, 32% of the Moon is Illuminated
Aug 12
Waxing Crescent
Aug 14
First Quarter
Aug 20
Full
Aug 28
Last Quarter
Sep 5
New

Hourly Weather History & Observations

Time (PDT) Temp. Dew Point Humidity Pressure Visibility Wind Dir Wind Speed Gust Speed Precip Events Conditions
12:56 AM 66.0 °F 26.1 °F 22% 29.86 in 10.0 mi Calm Calm - N/A   Clear
1:56 AM 62.1 °F 26.1 °F 25% 29.87 in 10.0 mi NNW 6.9 mph - N/A   Clear
2:56 AM 57.9 °F 27.0 °F 31% 29.88 in 10.0 mi NW 5.8 mph - N/A   Clear
3:56 AM 55.9 °F 27.0 °F 33% 29.88 in 10.0 mi NNW 4.6 mph - N/A   Clear
4:56 AM 54.0 °F 27.0 °F 35% 29.89 in 10.0 mi North 3.5 mph - N/A   Clear
5:56 AM 53.1 °F 27.0 °F 37% 29.91 in 10.0 mi North 5.8 mph - N/A   Clear
6:56 AM 54.0 °F 28.9 °F 38% 29.93 in 10.0 mi Variable 3.5 mph - N/A   Clear
7:56 AM 66.0 °F 32.0 °F 28% 29.92 in 10.0 mi North 3.5 mph - N/A   Clear
8:56 AM 72.0 °F 28.9 °F 20% 29.92 in 10.0 mi Calm Calm - N/A   Clear
9:56 AM 78.1 °F 28.0 °F 16% 29.91 in 10.0 mi Calm Calm - N/A   Clear
10:56 AM 82.9 °F 30.9 °F 15% 29.90 in 10.0 mi SE 6.9 mph - N/A   Clear
11:56 AM 88.0 °F 28.0 °F 12% 29.87 in 10.0 mi SSE 15.0 mph 20.7 mph N/A   Clear
12:56 PM 91.0 °F 25.0 °F 9% 29.85 in 10.0 mi South 17.3 mph 24.2 mph N/A   Clear
1:56 PM 93.0 °F 18.0 °F 6% 29.83 in 10.0 mi South 18.4 mph 27.6 mph N/A   Clear
2:56 PM 93.9 °F 19.9 °F 7% 29.82 in 10.0 mi SSE 15.0 mph 23.0 mph N/A   Clear
3:56 PM 95.0 °F 19.9 °F 7% 29.81 in 10.0 mi SSE 9.2 mph 21.9 mph N/A   Clear
4:56 PM 93.9 °F 21.9 °F 7% 29.80 in 10.0 mi South 11.5 mph 21.9 mph N/A   Clear
5:56 PM 93.0 °F 21.0 °F 7% 29.80 in 10.0 mi SSE 13.8 mph - N/A   Clear
6:56 PM 90.0 °F 21.9 °F 8% 29.81 in 10.0 mi SSE 12.7 mph - N/A   Clear
7:56 PM 84.9 °F 24.1 °F 11% 29.82 in 10.0 mi SSE 6.9 mph - N/A   Clear
8:56 PM 81.0 °F 18.0 °F 10% 29.85 in 10.0 mi NNE 10.4 mph - N/A   Clear
9:56 PM 75.0 °F 19.0 °F 12% 29.88 in 10.0 mi West 5.8 mph - N/A   Clear
10:56 PM 75.0 °F 21.9 °F 14% 29.89 in 10.0 mi NW 3.5 mph - N/A   Clear
11:56 PM 68.0 °F 24.1 °F 19% 29.90 in 10.0 mi WNW 3.5 mph - N/A   Clear